Temp
43 43 44 45 45 44 43 44 45 45 43 42 42 42 42 42 42 42 42 42 43 44 44 44 45 44 44 43 43 43 42 42 42 43 44 44 42 41 41 41 41 41 41 41 41 41 41 42 42 43 44 44 44 43 43 44 43 42 42 43 44 43 42 42 44 44 43 43 44
43 44 45 47 47 45 44 44 44 44 43 42 42 41 41 42 42 42 42 42 43 44 44 44 44 44 43 43 43 42 42 42 41 41 42 41 41 40 40 40 40 40 41 41 41 41 42 42 42 43 44 44 43 43 43 43 43 42 41 40 42 42 43 43 44 43 43 43 43
42 43 43 44 43 43 42 42 42 41 40 40 40 40 41 41 41 42 42 43 42 42 42 44 43 43 43 43 42 41 41 40 40 40 40 40 40 40 40 40 39 40 41 41 40 41 42 40 42 44 45 45 43 42 43 42 42 41 41 40 41 43 44 45 43 43 43 44 42
40 41 41 41 41 41 41 42 41 40 40 40 39 39 40 40 41 42 42 41 40 41 42 43 43 43 43 43 42 41 40 41 41 40 40 39 39 39 39 39 39 39 39 40 39 40 40 39 41 43 43 42 41 41 43 43 41 41 41 41 42 42 43 44 43 43 43 43 41
41 41 41 41 41 41 40 40 40 40 40 40 40 40 40 40 41 41 41 41 42 42 42 41 42 43 43 43 41 40 39 40 42 42 40 39 39 39 38 38 38 39 39 39 39 39 39 38 41 42 42 41 42 43 42 40 40 40 41 42 42 42 42 43 42 42 42 42 41
41 41 40 40 40 40 39 39 39 39 39 40 40 40 40 41 41 41 42 42 42 41 41 42 43 44 44 41 40 39 39 38 39 39 38 38 38 38 38 38 38 38 38 39 38 38 38 37 41 42 42 42 41 41 40 38 39 39 40 41 41 41 40 40 41 41 40 40 38
41 41 40 40 40 40 39 39 38 38 38 38 39 39 40 40 40 40 40 40 41 41 42 45 44 43 42 40 39 39 39 38 38 38 38 38 38 38 38 38 38 38 38 38 38 38 37 37 41 43 44 45 44 42 39 37 38 38 38 40 40 40 39 38 38 39 38 37 36
41 41 41 40 40 39 39 39 38 38 38 39 39 39 39 39 39 39 39 39 40 41 43 44 42 40 39 39 38 38 38 38 38 38 37 37 37 37 38 38 38 38 38 38 38 37 38 39 41 42 42 42 43 42 39 37 36 36 36 37 39 39 38 38 37 37 37 36 35
40 40 40 39 39 38 38 38 37 38 39 39 39 39 39 38 38 38 39 40 41 41 41 41 40 39 38 38 38 38 38 38 38 38 37 37 38 38 38 38 38 38 38 38 38 37 37 40 41 42 41 42 42 40 38 36 35 34 35 36 38 38 37 36 36 35 35 35 35
39 39 38 38 38 38 38 37 37 37 38 38 38 38 38 41 40 40 39 40 41 40 39 39 39 39 38 38 37 37 37 37 38 38 38 38 38 38 38 38 37 38 39 39 39 38 38 40 41 41 40 38 38 37 36 34 34 33 34 37 37 36 35 35 35 34 34 35 34
39 38 38 38 38 39 39 37 37 38 38 37 37 37 37 40 39 39 39 39 39 38 38 38 38 38 38 37 37 37 37 37 37 37 37 37 38 37 37 37 36 37 38 39 39 39 40 40 40 39 38 37 36 36 35 34 33 33 34 35 35 34 34 35 34 34 34 34 34
38 38 38 38 37 37 37 37 37 38 37 37 37 36 36 36 37 38 38 38 38 38 38 38 38 38 37 37 37 38 38 37 37 37 37 37 37 36 36 36 36 36 37 38 38 39 40 39 38 37 36 35 36 37 37 35 34 34 34 34 34 34 35 35 34 34 34 33 34
38 38 38 37 37 36 36 36 36 36 36 36 36 36 36 36 37 38 38 37 37 38 38 38 38 38 37 37 37 37 37 37 37 37 37 38 37 37 36 36 36 36 37 38 37 38 38 38 36 36 36 36 37 38 37 35 35 35 35 34 34 34 34 34 34 34 33 33 34
37 37 37 37 36 36 36 36 36 36 36 36 36 36 36 36 37 38 39 37 37 37 38 38 38 38 38 37 37 37 37 37 37 36 37 37 38 37 37 37 35 35 36 37 36 35 35 36 35 35 35 36 37 37 37 36 35 35 34 34 34 34 34 34 34 33 33 33 33
37 37 37 36 36 36 36 36 36 36 36 36 36 36 36 36 38 39 39 37 37 37 37 37 37 38 38 37 37 36 36 36 36 36 37 37 37 37 37 37 34 34 34 35 35 35 34 34 35 35 35 36 36 36 36 36 35 35 34 34 34 34 34 34 34 33 33 33 33
37 36 36 36 36 36 36 36 36 36 36 36 36 36 36 37 38 38 38 37 37 37 37 36 37 37 37 38 37 37 36 36 36 36 37 37 37 37 36 36 34 33 33 33 34 35 35 34 35 35 35 35 35 35 35 35 34 34 34 34 34 34 34 34 34 33 33 33 33
36 36 35 35 35 35 35 35 35 36 36 36 35 36 36 36 37 38 38 38 38 38 37 36 37 37 37 38 38 37 37 37 37 37 37 37 37 36 36 35 34 33 33 33 33 34 34 34 35 35 34 34 34 34 34 34 34 34 34 34 34 33 34 34 34 33 33 32 33
36 35 35 35 35 35 35 34 35 35 35 35 35 36 36 36 37 37 38 38 37 37 37 37 37 37 36 36 36 37 37 37 37 37 37 37 36 36 35 34 34 33 33 33 33 33 34 34 34 34 34 34 34 34 34 34 34 33 33 33 33 33 33 33 33 33 33 33 34
35 35 35 35 35 34 35 35 35 35 35 35 36 36 36 36 36 36 37 37 37 37 36 37 37 37 36 36 36 37 37 37 37 37 36 36 36 36 35 34 34 33 33 33 33 33 33 34 34 34 34 34 34 33 33 33 33 33 33 33 33 33 33 33 33 33 33 34 35
35 34 34 35 35 34 34 35 35 35 35 36 36 36 36 36 36 36 36 37 37 37 36 36 37 37 36 35 35 35 36 37 36 36 36 36 36 35 35 34 34 33 33 33 33 33 33 33 33 33 33 33 33 33 33 33 33 33 33 33 33 33 33 33 34 34 34 35 35
34 34 34 34 34 34 34 35 35 35 35 35 35 36 36 36 36 36 36 37 37 36 35 35 35 36 35 35 35 34 35 37 36 36 36 37 36 36 35 34 34 33 33 33 32 32 32 32 32 32 32 32 32 32 32 33 33 33 33 34 35 35 35 36 36 36 36 36 36
34 34 34 34 34 34 34 35 34 35 35 35 35 36 36 36 36 36 36 36 36 35 35 35 35 34 34 34 34 35 35 37 37 37 37 37 37 37 36 35 33 33 32 32 32 31 31 31 31 31 31 31 31 32 32 33 33 34 35 35 36 36 37 37 37 37 37 37 37
33 33 33 33 33 34 35 35 34 34 34 35 35 36 36 36 37 37 36 35 36 35 35 35 35 34 34 34 34 34 35 36 36 37 37 37 37 36 35 34 32 31 31 32 31 31 30 31 31 31 31 31 31 32 32 33 34 35 35 35 35 36 37 37 37 37 37 37 37
32 32 33 33 33 33 33 33 33 34 34 35 35 36 36 37 37 36 36 35 35 35 35 36 35 35 34 34 33 34 34 35 35 36 36 36 36 35 34 33 32 32 32 32 33 34 34 35 34 33 33 33 33 34 35 35 35 35 35 34 35 35 36 37 37 38 38 38 38
32 32 32 33 32 32 32 33 33 33 34 35 35 36 36 36 36 36 36 35 35 35 34 34 34 34 35 35 34 34 34 34 34 35 35 35 35 35 35 36 35 34 33 34 39 42 44 43 41 39 38 38 39 39 38 36 36 35 35 35 35 36 37 37 37 38 38 37 37
31 32 32 32 32 32 32 32 32 33 34 34 35 35 35 35 36 35 35 35 35 35 34 34 34 36 37 36 36 35 34 35 35 35 35 35 35 35 35 36 37 35 34 37 42 44 46 47 46 45 43 41 41 40 38 36 36 36 36 36 36 36 37 37 37 37 38 38 37
31 32 32 32 31 31 31 32 32 33 33 34 34 35 35 35 36 35 35 35 35 34 34 34 34 36 38 36 35 34 34 35 35 34 34 34 35 35 35 36 36 35 35 39 43 45 46 47 47 47 45 42 40 38 37 36 36 36 36 36 36 36 36 36 36 36 37 37 37
31 32 32 31 31 31 32 32 32 33 33 34 34 35 35 35 34 34 34 35 34 34 33 33 34 35 36 35 35 34 35 35 35 35 35 35 34 34 34 35 35 35 37 42 45 46 46 47 47 47 46 45 42 39 37 36 37 37 37 36 36 36 36 36 36 36 36 36 36
31 31 31 31 31 31 32 32 33 33 34 34 34 35 35 35 34 34 34 33 33 33 33 35 36 36 36 35 36 35 35 34 35 35 35 34 34 34 34 34 34 36 40 44 45 46 46 47 47 47 47 46 44 41 38 37 37 38 38 37 37 36 36 36 36 35 35 35 35
30 30 31 31 31 31 32 33 33 34 34 35 35 35 34 34 34 33 33 33 33 33 34 35 35 35 35 35 36 36 36 35 35 35 34 33 33 34 35 36 35 36 39 43 45 46 46 46 46 47 47 47 45 41 38 37 37 37 37 37 36 36 36 36 35 35 35 34 34
30 30 30 30 31 31 32 33 33 34 34 35 34 34 34 34 33 33 33 33 34 35 36 35 34 34 34 35 35 35 35 35 34 34 33 33 35 35 35 35 33 35 38 43 45 45 46 46 46 47 47 47 45 42 39 38 37 37 37 36 36 36 36 35 34 34 34 34 34
30 30 30 30 31 32 32 33 33 34 34 34 33 33 33 33 33 33 33 33 34 34 34 34 34 34 34 34 34 34 34 34 34 34 34 34 34 34 34 34 34 35 39 43 45 46 46 46 46 46 46 46 45 42 39 38 37 37 36 36 36 35 35 35 35 34 34 34 34
30 30 30 30 31 32 32 33 33 34 34 33 33 33 33 33 33 33 33 33 34 33 33 33 34 34 34 34 34 34 34 34 35 36 36 36 34 34 34 35 35 37 41 44 45 46 46 46 46 46 46 46 45 42 39 38 37 37 37 36 35 35 34 34 34 34 34 34 35
30 30 30 30 31 32 33 33 34 34 33 33 33 33 33 33 33 33 34 34 34 34 34 34 34 34 34 34 34 34 35 37 36 35 34 33 33 33 34 35 36 39 42 44 45 45 46 46 46 46 46 46 43 40 38 37 38 37 37 36 35 35 35 34 34 35 35 36 36
30 30 30 31 32 33 33 34 34 33 33 34 34 34 34 33 33 34 34 36 36 35 34 34 34 34 34 35 34 34 34 36 35 34 34 34 33 34 34 34 35 39 42 44 45 45 45 46 46 46 45 45 41 39 38 37 37 37 36 35 35 34 34 34 34 35 36 37 37
31 31 31 32 32 33 33 34 34 34 34 34 35 35 34 34 33 34 35 36 36 35 34 34 34 34 33 34 34 34 35 34 34 34 34 34 34 34 34 34 35 37 41 43 44 45 45 45 45 45 45 42 39 38 37 37 37 36 35 34 34 34 34 35 35 36 36 37 37
32 32 32 33 33 33 34 34 34 34 35 35 35 34 34 34 34 34 35 36 35 34 33 33 34 33 33 33 34 34 34 34 34 34 34 35 35 34 34 34 34 36 39 42 44 44 45 45 45 45 43 40 37 37 37 36 36 35 35 34 34 35 35 36 36 36 36 36 37
33 33 33 33 34 34 34 34 34 35 35 35 34 34 34 34 34 34 35 36 34 34 33 33 33 33 34 33 34 34 34 34 34 35 35 35 35 35 35 35 34 36 38 41 43 44 44 44 45 44 42 39 37 36 36 36 36 35 35 35 35 36 36 37 37 37 36 35 38
34 33 33 33 34 34 35 35 34 34 34 34 34 34 34 33 34 35 36 36 34 33 33 33 33 34 34 35 35 35 35 35 35 35 35 35 35 36 37 36 35 36 37 41 42 43 44 44 44 44 43 40 38 37 37 36 36 35 35 35 35 36 36 36 37 36 36 35 39
34 34 34 34 34 35 35 35 34 34 34 34 34 34 34 34 35 36 36 36 34 33 33 33 33 34 35 37 36 36 35 35 35 35 35 35 36 38 39 37 35 35 36 39 41 42 43 44 44 44 43 40 38 37 37 36 36 35 35 35 35 36 36 36 36 36 35 35 38
35 35 35 35 35 35 34 34 34 34 34 33 33 34 35 36 36 36 35 35 34 33 34 35 34 35 35 37 37 36 35 35 35 35 35 36 36 37 38 36 34 32 33 35 39 42 43 43 43 44 43 41 39 38 37 36 35 35 35 35 35 35 35 35 35 35 36 36 36
MSLP
1022.95 1022.95 1022.99 1023.03 1023.03 1023.11 1023.15 1023.11 1023.07 1023.07 1023.07 1023.11 1023.11 1023.11 1023.07 1023.11 1023.11 1023.07 1022.95 1022.95 1022.91 1022.79 1022.67 1022.55 1022.51 1022.39 1022.27 1022.19 1022.11 1022.07 1021.99 1021.87 1021.79 1021.71 1021.63 1021.59 1021.51 1021.47 1021.39 1021.35 1021.27 1021.23 1021.23 1021.19 1021.15 1021.11 1021.07 1021.07 1021.03 1020.95 1020.91 1020.83 1020.79 1020.75 1020.67 1020.55 1020.55 1020.51 1020.47 1020.43 1020.39 1020.31 1020.27 1020.23 1020.11 1020.03 1019.95 1019.91 1019.79
1022.95 1022.95 1022.95 1022.95 1022.99 1023.07 1023.11 1023.11 1023.11 1023.07 1023.03 1023.03 1022.95 1022.95 1022.99 1022.99 1023.03 1022.99 1022.95 1022.87 1022.75 1022.67 1022.55 1022.51 1022.39 1022.31 1022.23 1022.11 1022.03 1021.99 1021.95 1021.87 1021.79 1021.67 1021.63 1021.55 1021.51 1021.39 1021.35 1021.27 1021.23 1021.19 1021.15 1021.11 1021.11 1021.07 1020.99 1020.99 1020.99 1020.95 1020.83 1020.79 1020.71 1020.67 1020.55 1020.43 1020.47 1020.47 1020.39 1020.39 1020.31 1020.23 1020.11 1020.07 1019.95 1019.87 1019.79 1019.71 1019.63
1022.95 1022.95 1022.99 1023.03 1023.11 1023.11 1023.15 1023.15 1023.11 1023.11 1023.07 1022.95 1022.95 1022.91 1022.95 1022.95 1022.95 1022.91 1022.83 1022.71 1022.67 1022.63 1022.51 1022.43 1022.35 1022.23 1022.19 1022.07 1021.95 1021.95 1021.87 1021.79 1021.75 1021.67 1021.63 1021.55 1021.43 1021.35 1021.31 1021.23 1021.19 1021.11 1021.07 1021.07 1021.03 1020.99 1020.95 1020.95 1020.91 1020.83 1020.79 1020.71 1020.67 1020.59 1020.51 1020.39 1020.39 1020.39 1020.35 1020.27 1020.15 1020.07 1020.07 1019.95 1019.83 1019.75 1019.67 1019.59 1019.51
1022.95 1022.99 1023.03 1023.03 1023.11 1023.11 1023.11 1023.11 1023.11 1023.07 1022.99 1022.91 1022.91 1022.87 1022.87 1022.87 1022.79 1022.75 1022.67 1022.63 1022.59 1022.55 1022.51 1022.39 1022.27 1022.15 1022.07 1022.03 1021.91 1021.83 1021.79 1021.71 1021.67 1021.67 1021.59 1021.51 1021.39 1021.31 1021.23 1021.15 1021.15 1021.11 1021.03 1020.95 1020.95 1020.91 1020.87 1020.91 1020.79 1020.75 1020.67 1020.67 1020.63 1020.55 1020.43 1020.31 1020.31 1020.27 1020.23 1020.11 1020.03 1019.99 1019.95 1019.83 1019.71 1019.67 1019.63 1019.51 1019.43
1022.95 1022.95 1022.95 1022.95 1023.03 1023.07 1023.03 1023.03 1023.03 1022.95 1022.95 1022.87 1022.87 1022.83 1022.79 1022.75 1022.71 1022.67 1022.67 1022.59 1022.51 1022.39 1022.35 1022.23 1022.19 1022.07 1021.95 1021.91 1021.87 1021.79 1021.75 1021.67 1021.59 1021.55 1021.51 1021.39 1021.35 1021.27 1021.23 1021.11 1021.11 1021.07 1020.99 1020.95 1020.95 1020.87 1020.83 1020.79 1020.75 1020.67 1020.63 1020.55 1020.51 1020.47 1020.39 1020.27 1020.27 1020.23 1020.07 1019.95 1019.95 1019.91 1019.83 1019.75 1019.67 1019.59 1019.51 1019.43 1019.39
1022.95 1022.95 1022.95 1022.95 1022.95 1022.95 1022.95 1022.91 1022.91 1022.91 1022.87 1022.83 1022.83 1022.83 1022.79 1022.71 1022.67 1022.63 1022.59 1022.51 1022.39 1022.31 1022.23 1022.11 1022.07 1021.95 1021.87 1021.83 1021.83 1021.79 1021.71 1021.63 1021.55 1021.51 1021.47 1021.39 1021.31 1021.23 1021.19 1021.11 1021.07 1020.99 1020.95 1020.87 1020.87 1020.79 1020.79 1020.79 1020.71 1020.59 1020.51 1020.47 1020.39 1020.31 1020.23 1020.23 1020.23 1020.15 1020.03 1019.95 1019.83 1019.79 1019.79 1019.67 1019.59 1019.51 1019.47 1019.43 1019.39
1022.91 1022.91 1022.91 1022.91 1022.91 1022.91 1022.91 1022.87 1022.83 1022.83 1022.83 1022.79 1022.83 1022.83 1022.79 1022.67 1022.63 1022.59 1022.51 1022.39 1022.31 1022.23 1022.11 1021.99 1021.95 1021.91 1021.87 1021.87 1021.83 1021.79 1021.71 1021.63 1021.55 1021.51 1021.43 1021.39 1021.27 1021.23 1021.15 1021.07 1020.99 1020.95 1020.95 1020.83 1020.79 1020.75 1020.75 1020.75 1020.67 1020.55 1020.43 1020.35 1020.27 1020.23 1020.15 1020.15 1020.11 1020.07 1020.03 1019.91 1019.79 1019.67 1019.67 1019.63 1019.51 1019.51 1019.47 1019.43 1019.39
1022.87 1022.87 1022.87 1022.87 1022.87 1022.87 1022.87 1022.83 1022.79 1022.79 1022.79 1022.79 1022.79 1022.75 1022.67 1022.59 1022.55 1022.51 1022.39 1022.35 1022.27 1022.19 1022.07 1021.95 1021.95 1021.95 1021.91 1021.87 1021.83 1021.79 1021.67 1021.63 1021.51 1021.43 1021.39 1021.31 1021.23 1021.19 1021.11 1021.03 1020.95 1020.91 1020.83 1020.79 1020.75 1020.71 1020.67 1020.63 1020.59 1020.51 1020.39 1020.27 1020.23 1020.11 1020.07 1020.07 1020.07 1020.07 1019.99 1019.87 1019.75 1019.67 1019.63 1019.55 1019.51 1019.47 1019.47 1019.39 1019.35
1022.91 1022.87 1022.83 1022.83 1022.83 1022.83 1022.83 1022.79 1022.79 1022.79 1022.79 1022.75 1022.67 1022.67 1022.59 1022.51 1022.47 1022.43 1022.35 1022.23 1022.11 1022.03 1021.99 1021.95 1021.91 1021.87 1021.83 1021.83 1021.79 1021.71 1021.63 1021.55 1021.47 1021.39 1021.31 1021.23 1021.23 1021.15 1021.07 1020.99 1020.95 1020.87 1020.79 1020.71 1020.71 1020.71 1020.67 1020.55 1020.47 1020.39 1020.31 1020.23 1020.15 1020.07 1019.99 1019.99 1020.03 1020.03 1019.95 1019.83 1019.67 1019.59 1019.51 1019.51 1019.47 1019.43 1019.39 1019.35 1019.31
1022.91 1022.91 1022.87 1022.87 1022.83 1022.79 1022.79 1022.79 1022.79 1022.79 1022.79 1022.71 1022.63 1022.55 1022.51 1022.43 1022.39 1022.31 1022.23 1022.15 1022.03 1021.99 1021.95 1021.91 1021.87 1021.83 1021.79 1021.75 1021.71 1021.67 1021.55 1021.51 1021.39 1021.35 1021.27 1021.19 1021.15 1021.11 1021.03 1020.95 1020.95 1020.83 1020.75 1020.67 1020.59 1020.59 1020.55 1020.47 1020.39 1020.27 1020.19 1020.15 1020.11 1020.07 1019.99 1019.95 1019.99 1019.95 1019.83 1019.67 1019.63 1019.51 1019.43 1019.39 1019.39 1019.39 1019.35 1019.27 1019.23
1022.91 1022.91 1022.87 1022.87 1022.79 1022.79 1022.79 1022.79 1022.79 1022.75 1022.71 1022.67 1022.59 1022.51 1022.43 1022.39 1022.31 1022.23 1022.11 1022.07 1022.07 1021.99 1021.95 1021.87 1021.79 1021.79 1021.75 1021.67 1021.63 1021.51 1021.43 1021.39 1021.35 1021.23 1021.19 1021.11 1021.07 1021.03 1020.99 1020.95 1020.91 1020.79 1020.71 1020.63 1020.55 1020.47 1020.39 1020.39 1020.31 1020.23 1020.11 1020.07 1020.03 1019.99 1019.95 1019.91 1019.87 1019.79 1019.71 1019.63 1019.55 1019.51 1019.39 1019.27 1019.23 1019.27 1019.23 1019.19 1019.11
1022.87 1022.87 1022.83 1022.79 1022.79 1022.79 1022.79 1022.79 1022.79 1022.71 1022.67 1022.67 1022.55 1022.51 1022.39 1022.35 1022.27 1022.15 1022.07 1022.07 1022.03 1021.95 1021.83 1021.79 1021.75 1021.71 1021.67 1021.59 1021.51 1021.39 1021.31 1021.31 1021.23 1021.23 1021.15 1021.11 1021.03 1020.95 1020.91 1020.87 1020.79 1020.75 1020.67 1020.55 1020.47 1020.39 1020.35 1020.31 1020.23 1020.11 1020.07 1020.03 1019.95 1019.91 1019.83 1019.79 1019.75 1019.67 1019.59 1019.47 1019.43 1019.39 1019.27 1019.11 1019.11 1019.11 1019.11 1019.07 1018.99
1022.83 1022.79 1022.79 1022.79 1022.79 1022.79 1022.79 1022.79 1022.79 1022.71 1022.67 1022.63 1022.55 1022.47 1022.39 1022.27 1022.19 1022.11 1022.07 1022.03 1021.95 1021.83 1021.75 1021.67 1021.63 1021.59 1021.55 1021.47 1021.39 1021.31 1021.23 1021.23 1021.19 1021.15 1021.11 1020.99 1020.95 1020.91 1020.83 1020.75 1020.67 1020.63 1020.51 1020.43 1020.39 1020.31 1020.23 1020.19 1020.15 1020.07 1020.03 1019.91 1019.83 1019.79 1019.71 1019.67 1019.63 1019.55 1019.47 1019.35 1019.27 1019.23 1019.15 1019.03 1018.95 1018.95 1018.95 1018.91 1018.83
1022.79 1022.79 1022.79 1022.79 1022.79 1022.79 1022.79 1022.79 1022.79 1022.71 1022.67 1022.59 1022.51 1022.39 1022.31 1022.23 1022.11 1022.07 1021.99 1021.95 1021.87 1021.79 1021.67 1021.63 1021.51 1021.47 1021.39 1021.35 1021.27 1021.23 1021.19 1021.11 1021.11 1021.07 1020.99 1020.91 1020.83 1020.79 1020.75 1020.67 1020.59 1020.51 1020.43 1020.31 1020.23 1020.23 1020.15 1020.07 1020.07 1019.99 1019.95 1019.79 1019.71 1019.63 1019.55 1019.55 1019.51 1019.39 1019.35 1019.23 1019.15 1019.07 1018.95 1018.91 1018.83 1018.79 1018.79 1018.71 1018.67
1022.79 1022.79 1022.79 1022.79 1022.79 1022.83 1022.79 1022.79 1022.75 1022.67 1022.63 1022.55 1022.43 1022.35 1022.23 1022.19 1022.07 1021.95 1021.91 1021.83 1021.79 1021.71 1021.67 1021.59 1021.47 1021.35 1021.27 1021.23 1021.19 1021.11 1021.11 1021.07 1021.03 1020.95 1020.91 1020.83 1020.75 1020.71 1020.67 1020.55 1020.47 1020.39 1020.31 1020.23 1020.15 1020.07 1020.03 1019.99 1019.91 1019.87 1019.79 1019.71 1019.55 1019.47 1019.39 1019.39 1019.31 1019.23 1019.15 1019.11 1019.03 1018.91 1018.79 1018.71 1018.67 1018.67 1018.63 1018.55 1018.47
1022.79 1022.79 1022.79 1022.83 1022.83 1022.79 1022.79 1022.79 1022.67 1022.63 1022.55 1022.51 1022.39 1022.27 1022.19 1022.07 1021.99 1021.95 1021.87 1021.79 1021.71 1021.63 1021.59 1021.51 1021.43 1021.31 1021.23 1021.15 1021.07 1021.03 1021.03 1020.95 1020.91 1020.87 1020.83 1020.75 1020.67 1020.55 1020.51 1020.43 1020.35 1020.27 1020.19 1020.11 1020.03 1019.95 1019.83 1019.79 1019.75 1019.67 1019.63 1019.51 1019.43 1019.31 1019.23 1019.15 1019.11 1019.03 1018.95 1018.87 1018.79 1018.67 1018.59 1018.51 1018.47 1018.43 1018.39 1018.35 1018.27
1022.79 1022.79 1022.83 1022.83 1022.79 1022.79 1022.75 1022.71 1022.67 1022.59 1022.51 1022.43 1022.35 1022.23 1022.15 1022.07 1021.95 1021.87 1021.79 1021.71 1021.67 1021.55 1021.51 1021.43 1021.35 1021.23 1021.15 1021.03 1020.95 1020.95 1020.91 1020.79 1020.79 1020.75 1020.71 1020.63 1020.51 1020.47 1020.39 1020.27 1020.23 1020.11 1020.03 1019.95 1019.91 1019.79 1019.67 1019.59 1019.51 1019.51 1019.43 1019.35 1019.23 1019.15 1019.07 1018.95 1018.91 1018.79 1018.75 1018.67 1018.55 1018.51 1018.39 1018.31 1018.27 1018.23 1018.15 1018.11 1018.03
1022.83 1022.83 1022.79 1022.79 1022.79 1022.75 1022.71 1022.67 1022.63 1022.55 1022.51 1022.39 1022.27 1022.19 1022.07 1021.99 1021.95 1021.83 1021.71 1021.63 1021.59 1021.51 1021.43 1021.35 1021.23 1021.15 1021.07 1020.95 1020.91 1020.83 1020.79 1020.71 1020.67 1020.63 1020.51 1020.47 1020.39 1020.31 1020.23 1020.15 1020.03 1019.95 1019.87 1019.79 1019.71 1019.63 1019.51 1019.39 1019.35 1019.27 1019.23 1019.11 1019.03 1018.95 1018.83 1018.75 1018.67 1018.59 1018.47 1018.39 1018.31 1018.23 1018.15 1018.07 1018.03 1017.99 1017.95 1017.87 1017.75
1022.87 1022.83 1022.79 1022.79 1022.75 1022.67 1022.67 1022.59 1022.55 1022.51 1022.39 1022.27 1022.23 1022.07 1021.99 1021.95 1021.83 1021.75 1021.67 1021.55 1021.51 1021.39 1021.31 1021.23 1021.11 1021.07 1020.95 1020.91 1020.83 1020.75 1020.67 1020.59 1020.51 1020.47 1020.39 1020.31 1020.23 1020.15 1020.07 1019.95 1019.87 1019.79 1019.71 1019.67 1019.51 1019.43 1019.31 1019.23 1019.15 1019.11 1018.99 1018.91 1018.79 1018.71 1018.63 1018.55 1018.43 1018.31 1018.23 1018.11 1018.07 1017.95 1017.91 1017.83 1017.79 1017.75 1017.67 1017.55 1017.47
1022.83 1022.79 1022.79 1022.71 1022.67 1022.63 1022.59 1022.51 1022.47 1022.39 1022.27 1022.15 1022.11 1022.03 1021.95 1021.83 1021.71 1021.67 1021.59 1021.43 1021.31 1021.23 1021.23 1021.19 1021.07 1020.95 1020.83 1020.79 1020.71 1020.63 1020.51 1020.47 1020.39 1020.31 1020.23 1020.11 1020.07 1019.95 1019.87 1019.79 1019.71 1019.63 1019.51 1019.47 1019.39 1019.23 1019.11 1019.03 1018.95 1018.87 1018.79 1018.71 1018.59 1018.51 1018.39 1018.27 1018.15 1018.07 1017.95 1017.87 1017.79 1017.71 1017.63 1017.55 1017.47 1017.39 1017.35 1017.23 1017.19
1022.79 1022.71 1022.67 1022.59 1022.55 1022.51 1022.51 1022.43 1022.39 1022.27 1022.19 1022.07 1022.03 1021.95 1021.79 1021.71 1021.63 1021.51 1021.43 1021.31 1021.19 1021.15 1021.11 1021.07 1020.95 1020.87 1020.79 1020.67 1020.59 1020.51 1020.39 1020.31 1020.23 1020.15 1020.07 1019.95 1019.87 1019.79 1019.71 1019.63 1019.51 1019.43 1019.35 1019.27 1019.19 1019.07 1018.95 1018.87 1018.79 1018.67 1018.59 1018.51 1018.39 1018.23 1018.15 1017.99 1017.87 1017.75 1017.67 1017.51 1017.43 1017.35 1017.23 1017.19 1017.11 1017.07 1016.99 1016.95 1016.91
1022.67 1022.59 1022.51 1022.51 1022.47 1022.43 1022.39 1022.31 1022.23 1022.15 1022.07 1021.99 1021.87 1021.79 1021.67 1021.59 1021.51 1021.39 1021.27 1021.15 1021.11 1021.03 1020.99 1020.95 1020.87 1020.79 1020.67 1020.59 1020.51 1020.39 1020.23 1020.11 1020.07 1019.99 1019.91 1019.79 1019.67 1019.59 1019.47 1019.39 1019.39 1019.31 1019.23 1019.11 1019.03 1018.91 1018.79 1018.67 1018.59 1018.47 1018.39 1018.23 1018.11 1017.99 1017.87 1017.71 1017.59 1017.43 1017.31 1017.19 1017.07 1016.95 1016.91 1016.83 1016.79 1016.79 1016.71 1016.67 1016.63
1022.51 1022.47 1022.43 1022.39 1022.39 1022.27 1022.23 1022.15 1022.11 1022.03 1021.95 1021.83 1021.75 1021.63 1021.51 1021.43 1021.31 1021.23 1021.15 1021.11 1020.99 1020.95 1020.87 1020.79 1020.67 1020.59 1020.51 1020.43 1020.35 1020.23 1020.15 1019.99 1019.91 1019.79 1019.71 1019.67 1019.55 1019.43 1019.35 1019.31 1019.23 1019.19 1019.11 1018.95 1018.87 1018.79 1018.67 1018.51 1018.35 1018.23 1018.11 1017.95 1017.79 1017.67 1017.51 1017.39 1017.27 1017.15 1016.99 1016.87 1016.79 1016.71 1016.67 1016.59 1016.55 1016.51 1016.43 1016.39 1016.27
1022.39 1022.39 1022.35 1022.27 1022.23 1022.23 1022.11 1022.07 1021.99 1021.91 1021.79 1021.71 1021.59 1021.47 1021.39 1021.27 1021.15 1021.07 1021.03 1020.95 1020.91 1020.83 1020.75 1020.67 1020.51 1020.47 1020.39 1020.27 1020.23 1020.11 1020.03 1019.95 1019.79 1019.67 1019.55 1019.51 1019.43 1019.35 1019.23 1019.19 1019.11 1019.03 1018.95 1018.79 1018.67 1018.59 1018.43 1018.23 1017.99 1017.83 1017.67 1017.55 1017.43 1017.27 1017.15 1017.03 1016.95 1016.83 1016.75 1016.67 1016.55 1016.47 1016.39 1016.35 1016.27 1016.23 1016.11 1016.03 1015.95
1022.31 1022.27 1022.23 1022.19 1022.15 1022.07 1022.03 1021.95 1021.87 1021.79 1021.67 1021.55 1021.43 1021.35 1021.23 1021.15 1021.07 1020.99 1020.95 1020.87 1020.79 1020.71 1020.63 1020.51 1020.43 1020.35 1020.23 1020.11 1020.03 1019.95 1019.91 1019.79 1019.71 1019.59 1019.47 1019.39 1019.27 1019.23 1019.11 1019.03 1018.95 1018.83 1018.71 1018.59 1018.39 1018.15 1017.95 1017.79 1017.59 1017.43 1017.27 1017.15 1016.95 1016.83 1016.71 1016.67 1016.59 1016.51 1016.47 1016.39 1016.31 1016.23 1016.07 1015.99 1015.95 1015.95 1015.83 1015.79 1015.71
1022.19 1022.19 1022.11 1022.07 1021.99 1021.95 1021.91 1021.79 1021.71 1021.63 1021.51 1021.35 1021.27 1021.19 1021.11 1021.07 1020.99 1020.95 1020.87 1020.79 1020.67 1020.59 1020.51 1020.39 1020.31 1020.19 1020.07 1019.95 1019.87 1019.79 1019.71 1019.67 1019.59 1019.51 1019.39 1019.27 1019.11 1019.03 1018.95 1018.87 1018.75 1018.63 1018.51 1018.39 1018.11 1017.91 1017.67 1017.47 1017.27 1017.11 1016.95 1016.83 1016.71 1016.59 1016.51 1016.39 1016.39 1016.31 1016.23 1016.11 1016.07 1015.99 1015.91 1015.79 1015.71 1015.67 1015.63 1015.55 1015.51
1022.07 1022.07 1022.03 1021.95 1021.91 1021.83 1021.75 1021.63 1021.51 1021.39 1021.31 1021.23 1021.15 1021.11 1020.99 1020.95 1020.83 1020.79 1020.79 1020.67 1020.55 1020.47 1020.39 1020.31 1020.23 1020.07 1019.91 1019.83 1019.75 1019.67 1019.63 1019.51 1019.39 1019.31 1019.23 1019.15 1019.07 1018.95 1018.83 1018.71 1018.55 1018.47 1018.35 1018.11 1017.91 1017.67 1017.47 1017.23 1017.03 1016.87 1016.75 1016.63 1016.51 1016.39 1016.31 1016.19 1016.11 1016.07 1015.99 1015.95 1015.91 1015.79 1015.75 1015.67 1015.55 1015.47 1015.39 1015.31 1015.23
1021.99 1021.95 1021.87 1021.79 1021.75 1021.67 1021.51 1021.43 1021.35 1021.27 1021.19 1021.11 1021.03 1020.95 1020.87 1020.79 1020.79 1020.71 1020.67 1020.55 1020.47 1020.35 1020.27 1020.19 1020.03 1019.91 1019.79 1019.75 1019.67 1019.55 1019.47 1019.39 1019.27 1019.19 1019.11 1018.99 1018.91 1018.79 1018.67 1018.51 1018.39 1018.23 1018.11 1017.91 1017.67 1017.43 1017.19 1016.99 1016.79 1016.67 1016.51 1016.39 1016.27 1016.15 1016.07 1015.99 1015.91 1015.83 1015.79 1015.75 1015.67 1015.63 1015.55 1015.47 1015.39 1015.27 1015.19 1015.07 1014.95
1021.83 1021.79 1021.75 1021.67 1021.63 1021.47 1021.35 1021.23 1021.19 1021.11 1020.99 1020.91 1020.87 1020.79 1020.75 1020.71 1020.67 1020.63 1020.51 1020.39 1020.35 1020.27 1020.19 1019.99 1019.83 1019.75 1019.67 1019.59 1019.51 1019.39 1019.27 1019.19 1019.11 1018.99 1018.91 1018.79 1018.75 1018.67 1018.51 1018.35 1018.23 1018.07 1017.83 1017.63 1017.43 1017.23 1017.03 1016.79 1016.67 1016.51 1016.35 1016.15 1016.07 1015.95 1015.83 1015.75 1015.67 1015.59 1015.51 1015.47 1015.47 1015.43 1015.39 1015.27 1015.23 1015.11 1014.95 1014.79 1014.59
1021.71 1021.67 1021.59 1021.51 1021.43 1021.31 1021.19 1021.07 1020.99 1020.91 1020.83 1020.79 1020.75 1020.67 1020.67 1020.59 1020.55 1020.51 1020.39 1020.31 1020.23 1020.11 1019.95 1019.79 1019.71 1019.67 1019.55 1019.47 1019.35 1019.23 1019.11 1019.03 1018.95 1018.87 1018.79 1018.67 1018.59 1018.47 1018.27 1018.11 1017.99 1017.83 1017.67 1017.47 1017.23 1017.07 1016.83 1016.63 1016.43 1016.23 1016.07 1015.95 1015.79 1015.71 1015.63 1015.55 1015.51 1015.43 1015.35 1015.27 1015.23 1015.23 1015.19 1015.11 1014.99 1014.83 1014.67 1014.43 1014.23
1021.51 1021.51 1021.43 1021.35 1021.23 1021.11 1020.99 1020.87 1020.79 1020.75 1020.71 1020.67 1020.63 1020.63 1020.55 1020.51 1020.43 1020.35 1020.23 1020.15 1020.03 1019.83 1019.71 1019.67 1019.63 1019.51 1019.39 1019.27 1019.19 1019.11 1018.95 1018.83 1018.79 1018.71 1018.67 1018.55 1018.39 1018.23 1018.07 1017.95 1017.79 1017.67 1017.51 1017.31 1017.07 1016.83 1016.59 1016.39 1016.23 1016.03 1015.83 1015.67 1015.55 1015.47 1015.39 1015.39 1015.31 1015.23 1015.19 1015.11 1015.07 1015.03 1014.95 1014.87 1014.71 1014.51 1014.31 1014.07 1013.95
1021.31 1021.27 1021.23 1021.15 1021.03 1020.91 1020.79 1020.67 1020.67 1020.63 1020.59 1020.55 1020.51 1020.51 1020.43 1020.39 1020.31 1020.19 1020.07 1019.95 1019.79 1019.67 1019.59 1019.51 1019.47 1019.35 1019.23 1019.11 1018.99 1018.91 1018.79 1018.71 1018.63 1018.51 1018.39 1018.31 1018.19 1018.07 1017.91 1017.75 1017.63 1017.51 1017.31 1017.07 1016.83 1016.59 1016.39 1016.19 1015.99 1015.79 1015.63 1015.51 1015.35 1015.23 1015.23 1015.19 1015.11 1015.07 1014.99 1014.95 1014.87 1014.79 1014.71 1014.59 1014.39 1014.11 1013.95 1013.79 1013.75
1021.15 1021.11 1021.03 1020.95 1020.83 1020.71 1020.63 1020.55 1020.51 1020.51 1020.43 1020.43 1020.39 1020.39 1020.31 1020.23 1020.07 1019.95 1019.83 1019.75 1019.67 1019.59 1019.51 1019.39 1019.27 1019.19 1019.07 1018.95 1018.79 1018.67 1018.63 1018.51 1018.39 1018.27 1018.15 1018.07 1017.99 1017.87 1017.71 1017.51 1017.43 1017.23 1017.07 1016.79 1016.59 1016.39 1016.15 1015.95 1015.79 1015.59 1015.39 1015.23 1015.11 1015.11 1015.11 1015.03 1014.95 1014.87 1014.79 1014.71 1014.67 1014.55 1014.39 1014.23 1014.03 1013.83 1013.67 1013.59 1013.51
1020.95 1020.91 1020.79 1020.71 1020.63 1020.51 1020.47 1020.39 1020.39 1020.35 1020.35 1020.35 1020.27 1020.23 1020.11 1020.03 1019.91 1019.79 1019.67 1019.51 1019.47 1019.39 1019.27 1019.19 1019.11 1018.95 1018.87 1018.75 1018.67 1018.55 1018.43 1018.27 1018.15 1018.07 1017.99 1017.91 1017.83 1017.71 1017.51 1017.35 1017.19 1016.99 1016.79 1016.55 1016.35 1016.15 1015.95 1015.79 1015.59 1015.39 1015.23 1015.07 1014.99 1014.95 1014.95 1014.87 1014.75 1014.67 1014.59 1014.51 1014.39 1014.23 1014.07 1013.91 1013.75 1013.59 1013.43 1013.35 1013.23
1020.71 1020.67 1020.59 1020.51 1020.39 1020.35 1020.31 1020.23 1020.23 1020.23 1020.23 1020.19 1020.07 1019.99 1019.91 1019.83 1019.75 1019.63 1019.47 1019.35 1019.23 1019.15 1019.07 1018.95 1018.87 1018.75 1018.63 1018.55 1018.47 1018.39 1018.27 1018.07 1017.99 1017.91 1017.83 1017.75 1017.63 1017.51 1017.31 1017.11 1016.95 1016.75 1016.59 1016.39 1016.19 1015.95 1015.79 1015.55 1015.39 1015.19 1015.03 1014.95 1014.91 1014.87 1014.79 1014.67 1014.55 1014.47 1014.39 1014.23 1014.11 1013.95 1013.79 1013.59 1013.47 1013.31 1013.19 1013.07 1012.95
1020.43 1020.39 1020.35 1020.27 1020.23 1020.19 1020.15 1020.11 1020.11 1020.07 1020.07 1020.03 1019.95 1019.79 1019.71 1019.63 1019.51 1019.43 1019.31 1019.11 1019.07 1018.95 1018.87 1018.75 1018.63 1018.55 1018.47 1018.35 1018.23 1018.19 1018.07 1017.95 1017.83 1017.71 1017.59 1017.51 1017.39 1017.23 1017.07 1016.87 1016.67 1016.51 1016.35 1016.15 1015.95 1015.79 1015.55 1015.39 1015.23 1015.03 1014.91 1014.79 1014.79 1014.75 1014.67 1014.51 1014.39 1014.23 1014.11 1013.99 1013.87 1013.71 1013.51 1013.35 1013.15 1012.99 1012.91 1012.79 1012.71
1020.15 1020.11 1020.11 1020.07 1020.07 1020.03 1019.99 1019.99 1019.99 1019.95 1019.91 1019.79 1019.71 1019.67 1019.51 1019.43 1019.31 1019.19 1019.11 1018.99 1018.91 1018.79 1018.67 1018.55 1018.47 1018.39 1018.27 1018.15 1018.07 1017.95 1017.83 1017.75 1017.67 1017.55 1017.39 1017.23 1017.15 1017.03 1016.83 1016.63 1016.47 1016.31 1016.11 1015.95 1015.75 1015.55 1015.39 1015.23 1015.07 1014.91 1014.79 1014.71 1014.67 1014.55 1014.43 1014.31 1014.15 1014.03 1013.91 1013.75 1013.55 1013.39 1013.23 1013.03 1012.83 1012.75 1012.67 1012.59 1012.51
1019.87 1019.87 1019.91 1019.91 1019.95 1019.91 1019.83 1019.79 1019.79 1019.79 1019.71 1019.63 1019.51 1019.43 1019.35 1019.23 1019.11 1018.99 1018.87 1018.79 1018.71 1018.63 1018.51 1018.39 1018.31 1018.23 1018.07 1017.95 1017.87 1017.75 1017.63 1017.51 1017.43 1017.35 1017.23 1017.07 1016.95 1016.79 1016.63 1016.39 1016.23 1016.07 1015.91 1015.75 1015.55 1015.39 1015.23 1015.07 1014.91 1014.79 1014.67 1014.63 1014.51 1014.35 1014.23 1014.07 1013.91 1013.75 1013.63 1013.43 1013.27 1013.11 1012.91 1012.79 1012.67 1012.51 1012.47 1012.39 1012.19
1019.67 1019.67 1019.71 1019.75 1019.75 1019.71 1019.67 1019.67 1019.63 1019.59 1019.51 1019.39 1019.31 1019.23 1019.11 1019.03 1018.95 1018.79 1018.67 1018.55 1018.51 1018.47 1018.39 1018.23 1018.11 1017.99 1017.87 1017.79 1017.67 1017.51 1017.39 1017.23 1017.19 1017.11 1016.99 1016.87 1016.71 1016.55 1016.39 1016.15 1015.95 1015.79 1015.67 1015.51 1015.39 1015.23 1015.11 1014.91 1014.79 1014.63 1014.51 1014.43 1014.31 1014.15 1014.03 1013.83 1013.67 1013.51 1013.39 1013.23 1013.03 1012.79 1012.67 1012.59 1012.51 1012.39 1012.27 1012.11 1011.83
1019.47 1019.51 1019.55 1019.55 1019.51 1019.51 1019.51 1019.51 1019.43 1019.39 1019.31 1019.23 1019.15 1019.07 1018.95 1018.83 1018.67 1018.51 1018.39 1018.39 1018.35 1018.27 1018.19 1018.07 1017.95 1017.79 1017.67 1017.51 1017.39 1017.27 1017.11 1016.99 1016.91 1016.83 1016.75 1016.63 1016.47 1016.31 1016.11 1015.95 1015.79 1015.63 1015.51 1015.39 1015.23 1015.07 1014.91 1014.75 1014.63 1014.47 1014.35 1014.27 1014.11 1013.95 1013.79 1013.59 1013.43 1013.27 1013.15 1013.03 1012.83 1012.67 1012.51 1012.43 1012.39 1012.23 1012.07 1011.79 1011.55
1019.31 1019.35 1019.35 1019.35 1019.35 1019.35 1019.31 1019.27 1019.23 1019.11 1019.07 1019.03 1018.95 1018.83 1018.71 1018.59 1018.47 1018.35 1018.23 1018.19 1018.15 1018.07 1017.99 1017.83 1017.71 1017.59 1017.47 1017.31 1017.23 1017.11 1016.95 1016.79 1016.67 1016.59 1016.51 1016.35 1016.23 1016.07 1015.95 1015.79 1015.67 1015.51 1015.39 1015.27 1015.11 1014.91 1014.71 1014.55 1014.43 1014.27 1014.15 1014.07 1013.91 1013.75 1013.55 1013.43 1013.27 1013.11 1012.95 1012.79 1012.67 1012.55 1012.43 1012.27 1012.15 1011.95 1011.79 1011.51 1011.31
Wind_Speed
1 1 1 1 1 1 1 1 2 2 2 2 2 2 2 2 2 3 3 2 2 3 3 3 3 4 4 5 5 6 6 7 7 7 6 6 5 5 5 4 4 4 4 5 5 4 4 4 4 4 4 4 4 4 4 4 4 4 4 5 5 5 6 7 8 9 9 10 8
1 1 1 1 1 1 0 1 1 1 2 2 2 2 2 2 2 2 3 3 3 3 3 3 3 4 4 5 6 6 6 7 7 6 6 6 5 5 4 4 4 4 4 5 5 5 4 4 4 4 4 4 4 4 5 5 4 4 5 6 5 5 5 6 7 8 8 8 7
1 1 1 1 1 0 1 1 1 2 2 2 2 2 2 2 2 2 3 3 3 3 3 3 3 4 4 5 5 5 5 5 5 5 5 5 5 5 4 4 4 5 5 5 5 5 5 5 4 4 5 4 5 5 5 5 4 4 5 6 5 5 5 6 6 6 6 5 6
0 0 1 1 1 1 1 2 2 2 2 2 2 1 2 2 2 2 2 2 2 3 3 3 4 4 4 4 5 5 5 5 5 5 5 5 5 5 4 4 5 5 5 5 5 6 5 5 4 4 5 5 5 5 5 5 4 4 4 5 5 5 5 5 5 5 5 5 5
0 1 1 1 1 2 2 2 2 2 2 1 1 1 1 2 2 2 2 2 3 3 4 4 4 4 4 4 5 5 5 5 5 5 4 5 5 5 5 5 5 5 6 6 6 6 6 5 4 4 4 5 5 5 5 5 5 5 4 4 4 4 5 5 5 4 4 4 4
1 1 1 1 2 2 2 2 2 2 2 1 1 2 2 2 2 2 3 3 4 4 4 4 5 5 5 5 5 5 5 5 5 4 4 5 5 5 5 5 6 6 6 6 6 6 6 5 4 4 4 4 5 5 5 5 5 5 5 5 4 4 4 4 4 4 5 5 5
1 1 1 1 1 1 2 2 2 2 1 1 1 3 3 3 3 4 4 4 4 4 4 4 5 5 5 5 5 5 5 5 5 4 4 5 5 5 6 6 6 6 6 6 6 6 6 5 5 5 5 6 5 5 6 5 5 5 6 6 5 4 4 5 4 4 5 6 6
1 1 1 2 1 2 2 2 2 1 1 1 2 4 5 5 5 5 5 4 4 4 4 3 4 4 4 4 5 5 5 5 5 5 5 5 5 6 6 6 7 7 7 6 6 6 6 5 5 5 5 5 5 5 6 6 5 5 6 7 6 5 4 4 4 4 5 7 7
1 1 1 1 2 2 2 2 2 2 2 3 4 4 5 5 5 5 5 4 4 4 3 3 3 4 4 4 5 5 5 5 5 5 5 5 6 6 7 7 7 7 7 6 7 7 7 6 5 5 5 5 5 6 6 6 6 6 6 6 6 5 5 4 4 5 5 7 8
1 2 2 2 2 2 2 2 2 2 2 3 4 4 5 5 5 4 4 4 4 3 3 3 3 4 4 5 5 5 5 5 5 6 6 6 6 7 7 7 7 7 7 7 7 7 7 6 6 6 6 5 6 6 7 6 6 6 6 5 6 6 7 6 6 6 6 7 8
1 2 2 2 2 2 2 2 2 2 2 3 4 4 5 5 4 4 4 3 3 4 4 4 4 4 5 5 5 5 5 5 5 5 6 6 7 7 7 7 7 7 8 8 7 6 6 6 7 8 8 6 6 6 7 7 7 7 7 6 6 7 8 8 8 7 7 7 8
1 2 2 2 2 2 2 2 2 2 3 3 4 4 4 4 4 4 4 3 4 4 5 4 4 4 5 5 6 6 5 5 5 6 6 7 7 7 7 7 7 8 8 8 7 6 6 7 8 8 8 8 7 7 7 8 8 9 9 8 8 9 9 10 9 8 7 7 9
1 1 2 2 2 2 2 2 2 3 3 4 4 5 5 5 4 4 4 4 5 5 5 4 4 4 5 6 6 6 6 6 6 6 6 7 7 7 8 8 8 8 8 8 7 6 7 7 8 9 9 9 8 8 8 9 9 10 10 10 10 10 10 11 10 9 8 8 9
1 1 1 2 2 2 2 2 3 3 3 4 5 5 5 5 5 4 4 5 6 6 5 5 5 5 5 5 6 6 6 6 6 6 7 7 7 8 8 8 8 8 8 8 6 7 7 8 8 9 9 10 10 10 10 9 10 10 10 11 11 11 11 11 10 9 9 9 10
1 1 2 2 2 2 2 3 3 3 4 5 5 5 5 5 5 5 5 5 6 6 5 5 5 5 6 6 6 6 6 6 6 7 7 8 8 8 8 8 8 8 8 8 7 7 8 8 9 9 10 11 11 11 11 10 10 10 10 10 11 11 11 11 11 10 9 10 10
1 2 2 2 2 2 2 3 3 3 4 5 5 5 5 5 5 5 5 6 6 5 5 6 6 6 6 6 6 6 6 6 6 7 7 8 8 8 9 9 9 8 8 8 8 8 8 8 9 9 10 11 11 11 11 11 10 10 10 11 11 11 11 11 11 10 10 10 10
1 2 2 2 2 3 3 3 3 4 4 5 6 6 6 5 5 5 6 6 6 6 6 7 6 6 6 6 6 5 5 6 7 7 7 8 8 9 9 9 9 9 9 9 9 9 9 9 9 9 10 10 10 11 11 11 10 10 11 11 11 11 11 11 11 10 10 10 11
2 2 2 2 2 3 4 4 4 4 5 6 6 6 6 5 5 6 6 6 6 7 7 8 7 6 6 7 6 5 5 6 7 7 8 8 8 9 9 9 9 9 9 9 9 10 10 10 10 10 9 10 10 10 10 10 10 10 11 11 11 11 11 11 10 10 10 10 11
2 2 2 2 3 3 4 4 5 5 5 6 6 6 6 6 6 6 6 6 6 7 8 8 8 7 7 7 7 6 5 6 7 8 8 8 8 8 9 9 9 9 9 9 9 10 10 10 10 10 10 10 10 10 10 10 10 10 11 11 11 11 10 10 10 10 10 11 12
2 2 3 3 3 3 4 4 4 5 5 5 6 7 7 7 7 7 7 8 7 7 7 8 8 8 7 7 7 7 6 5 7 8 8 8 8 9 9 9 9 9 9 9 9 9 10 10 10 10 10 10 10 10 10 10 10 10 10 10 10 10 11 11 11 11 11 11 12
3 3 3 3 3 3 3 4 4 5 5 6 7 7 7 7 7 7 8 8 8 8 7 8 8 8 8 8 8 7 6 5 6 7 8 8 9 9 9 9 9 9 9 9 9 9 9 10 10 10 10 10 10 11 11 11 11 11 11 10 10 11 11 11 11 11 11 10 11
3 3 3 3 3 3 3 4 4 5 6 6 7 7 7 7 7 8 8 7 7 7 7 8 8 8 8 8 8 7 7 6 7 7 8 8 9 9 9 8 9 9 9 9 9 9 9 9 9 9 9 10 10 10 11 11 11 11 12 12 12 12 11 11 10 10 10 10 10
3 3 3 3 3 4 4 4 5 5 6 6 7 7 7 7 8 8 7 7 7 7 7 7 7 7 8 7 7 7 7 7 8 8 8 8 8 9 9 8 8 8 9 8 8 8 8 8 9 9 9 9 10 10 11 11 11 11 11 11 11 11 10 10 10 9 10 10 10
3 3 3 3 3 3 4 4 5 5 6 6 7 7 7 7 8 8 8 7 8 8 8 7 7 7 7 7 7 7 7 8 8 9 8 8 9 9 8 8 8 8 8 7 8 9 9 9 9 8 9 9 9 9 9 9 9 9 9 9 10 10 10 9 9 9 9 10 10
3 3 3 3 3 4 4 4 5 6 6 7 7 7 7 7 7 7 8 8 8 8 8 8 7 7 7 7 7 7 7 7 8 9 9 9 9 9 8 8 8 7 7 7 12 16 18 17 13 11 9 9 9 9 9 8 8 8 8 8 8 9 10 10 10 9 9 10 9
3 3 3 4 4 4 5 5 6 6 6 6 7 7 7 7 7 7 7 8 8 8 8 8 7 7 7 7 7 7 7 7 8 8 9 10 10 9 9 8 8 7 7 9 15 19 22 23 22 18 14 11 10 10 9 8 8 8 8 8 8 9 9 10 10 10 10 9 9
3 4 4 4 5 5 6 6 6 6 6 6 7 7 7 7 7 7 8 8 9 8 7 7 6 7 7 6 7 7 8 7 8 8 9 9 10 10 10 9 8 7 8 12 18 21 23 24 24 23 20 14 11 10 9 8 8 8 8 7 8 8 9 9 10 10 10 10 10
4 4 5 5 5 6 6 6 6 6 6 7 7 7 7 7 8 8 8 8 8 7 6 6 6 5 5 5 6 8 8 9 8 9 9 9 9 10 10 9 8 8 11 16 20 22 23 24 25 24 23 19 13 10 8 8 8 7 7 7 7 8 8 8 9 9 10 11 11
5 5 5 5 6 6 6 6 6 6 7 7 7 7 7 7 8 8 8 8 7 6 6 6 5 5 5 6 7 8 9 9 9 8 8 9 9 9 9 10 9 10 14 19 21 23 24 24 24 25 24 23 15 10 7 7 7 7 7 7 7 7 8 8 9 9 11 12 13
6 5 5 6 6 6 6 6 6 7 7 6 7 7 8 8 8 8 8 7 7 6 6 6 5 6 7 8 8 8 9 8 8 8 8 9 9 10 10 10 9 10 13 18 21 23 24 24 24 25 24 24 19 13 8 7 7 7 7 7 7 8 9 9 10 12 12 13 13
6 6 6 6 6 6 7 6 7 7 7 7 7 7 8 8 8 7 7 6 7 7 7 6 7 8 8 8 7 8 8 8 8 8 8 9 10 10 10 10 10 10 13 18 21 23 24 24 25 25 25 25 19 13 9 7 7 7 7 7 8 9 9 10 11 13 14 14 13
6 6 6 6 6 6 6 6 7 7 7 7 8 8 8 8 7 6 6 5 6 7 7 6 7 8 9 8 8 8 8 9 9 9 9 9 10 10 10 10 10 11 13 19 22 23 24 25 25 25 25 25 20 14 10 8 7 7 7 8 9 10 10 11 12 13 14 14 13
6 6 6 6 6 6 6 7 7 7 7 7 7 7 8 8 7 6 6 6 6 6 6 7 8 8 8 9 8 8 9 9 9 10 10 10 10 10 10 10 9 11 15 20 22 24 25 25 25 25 25 25 19 13 9 8 7 7 8 8 9 10 12 13 13 14 14 14 13
6 6 6 6 6 6 6 7 7 7 7 7 7 7 7 7 7 7 7 6 6 6 6 6 7 7 7 7 8 9 9 10 10 9 9 9 9 9 10 10 9 12 16 21 23 24 24 25 24 24 24 24 17 11 9 9 9 9 9 10 10 11 12 13 14 14 14 14 13
6 6 6 6 6 6 6 7 7 7 7 7 7 8 7 6 7 7 7 7 6 6 6 6 7 7 7 7 7 8 9 10 10 10 9 9 9 10 11 11 10 13 17 21 23 24 24 24 24 24 23 20 13 10 9 10 10 10 10 11 11 12 13 14 14 14 14 14 13
6 6 6 6 6 6 6 7 6 6 6 7 8 8 8 7 7 6 6 7 7 7 6 7 6 6 7 7 7 8 8 9 10 10 10 10 10 11 11 12 11 14 17 20 22 23 23 23 23 23 22 17 11 9 9 9 9 10 10 11 12 13 14 14 13 13 12 11 12
6 6 6 6 6 6 6 6 6 7 7 8 8 8 7 7 7 6 6 6 6 6 7 7 7 7 7 7 8 8 8 8 9 10 10 11 10 11 12 13 12 13 16 19 20 21 22 22 22 22 20 14 10 9 9 8 8 9 10 11 12 13 13 13 12 11 10 9 11
6 6 6 6 6 6 6 6 6 7 8 8 7 7 6 6 6 6 6 6 6 6 7 7 7 8 8 8 9 9 10 9 9 10 11 11 11 11 12 13 12 12 13 16 19 20 21 21 22 21 19 13 10 9 9 8 8 9 10 10 11 12 11 10 8 8 8 9 12
6 6 5 5 6 6 6 6 7 7 7 7 7 7 6 6 5 6 6 6 6 6 6 7 8 8 9 9 10 10 10 10 10 10 11 11 11 12 13 14 12 12 12 15 17 19 19 20 21 22 20 15 11 9 9 8 9 9 10 10 10 10 9 8 6 6 7 9 15
6 5 5 5 5 6 6 7 7 7 6 7 7 7 7 6 6 6 6 6 6 6 6 7 8 9 10 10 10 11 11 11 11 10 11 11 12 14 15 14 12 12 12 14 16 17 19 20 21 22 20 15 11 9 8 8 9 9 10 9 9 8 7 6 6 7 8 10 14
5 4 4 5 5 5 6 7 7 7 6 6 6 6 6 6 6 6 6 6 6 6 6 7 8 10 10 11 10 11 11 12 12 11 11 11 12 13 13 12 11 10 10 11 14 16 18 20 21 22 21 16 11 9 8 7 8 9 10 9 8 8 7 7 7 8 9 11 11
Wind_Direction
119 137 153 157 165 176 196 222 225 217 207 202 214 221 223 224 242 250 252 247 251 258 264 266 267 270 274 276 275 276 278 280 282 282 282 281 278 278 279 283 287 292 297 299 301 302 302 300 299 297 294 291 289 287 285 284 284 282 280 278 276 275 272 270 269 268 265 262 261
129 142 153 151 144 159 215 257 260 255 242 225 223 225 226 225 238 249 255 253 254 260 268 274 275 277 280 280 278 278 279 281 282 284 284 283 280 280 283 289 292 295 296 298 299 300 300 300 300 298 296 294 292 290 288 286 286 287 287 284 282 281 280 277 274 271 269 267 265
152 150 143 132 138 167 224 250 257 257 254 248 236 230 226 225 232 242 251 255 259 266 274 279 280 281 282 283 283 281 280 279 281 283 284 283 285 287 290 294 297 298 298 298 298 297 297 296 296 295 295 294 291 289 288 288 287 287 286 284 284 285 285 282 280 278 276 275 271
209 164 154 153 181 207 224 233 247 252 253 250 244 235 228 229 232 242 252 263 273 276 276 276 281 283 284 284 286 286 284 282 282 283 284 286 290 291 294 297 300 300 299 298 298 296 296 295 294 293 292 290 288 287 286 287 288 286 283 282 284 285 285 284 284 285 285 283 279
257 216 197 194 211 220 222 220 233 243 249 247 256 260 256 250 253 262 276 286 281 276 274 275 280 283 285 287 289 291 291 291 290 290 291 293 294 296 299 302 300 299 298 299 298 297 297 297 296 294 291 288 287 285 284 285 287 286 284 285 284 284 284 286 287 289 290 290 291
251 245 234 219 223 227 229 224 228 234 239 235 270 284 285 279 279 281 282 279 276 276 277 280 284 288 291 295 296 297 298 298 298 298 298 299 299 302 304 304 301 301 301 301 300 299 299 300 299 296 294 291 288 286 285 286 286 287 286 286 285 285 286 286 288 293 296 297 300
226 251 264 259 249 250 251 246 239 238 242 244 279 282 280 279 279 276 273 273 279 283 285 287 290 293 296 300 300 300 300 301 301 300 299 300 302 304 304 303 303 303 303 302 302 302 301 300 300 299 297 296 293 291 289 288 287 287 287 287 286 286 287 286 289 295 299 300 302
233 260 268 266 261 261 263 264 264 271 282 283 278 275 273 273 274 275 276 281 283 285 286 291 292 292 293 297 298 298 299 301 302 301 301 301 304 304 304 304 306 305 303 302 303 302 301 300 299 297 296 296 294 292 291 291 290 288 287 287 288 287 287 288 294 298 301 302 303
313 295 286 281 273 269 269 269 269 278 285 284 276 272 270 271 273 276 280 282 282 283 288 291 291 292 294 296 295 295 296 298 300 300 301 303 304 305 305 306 306 305 303 302 301 300 300 300 298 295 293 293 292 292 292 293 293 290 288 287 290 291 292 293 297 299 301 302 302
312 302 299 298 290 287 287 286 282 280 281 282 279 276 276 278 278 277 276 276 285 293 295 291 293 296 298 296 295 294 294 295 297 299 301 303 303 303 303 303 302 301 301 300 300 300 300 299 297 295 292 291 291 291 292 293 292 290 289 290 293 295 295 294 296 297 298 298 297
279 278 281 286 288 296 306 310 303 296 291 287 286 285 285 285 283 279 278 284 298 298 293 288 294 296 296 294 293 292 292 294 296 299 301 302 300 299 298 297 296 296 296 296 297 299 299 298 295 294 293 292 292 292 293 293 292 291 291 291 293 294 295 294 294 294 294 293 292
259 265 270 276 288 307 321 320 310 304 299 295 292 290 288 285 282 283 288 299 299 293 290 288 292 292 292 291 290 291 293 294 296 297 298 298 297 295 294 293 292 292 292 292 294 296 296 295 294 293 293 293 293 293 294 294 294 293 292 292 292 292 292 291 291 291 289 289 289
253 273 288 298 311 324 329 320 309 304 300 297 293 290 288 285 283 286 293 297 294 292 292 292 291 289 288 287 288 290 292 293 294 295 295 294 293 293 292 291 290 290 290 290 291 292 292 291 291 291 292 293 293 293 293 293 293 292 292 292 291 290 288 288 288 287 286 286 285
268 299 309 313 323 329 327 316 308 303 300 296 292 290 289 289 289 291 294 294 292 291 292 293 291 288 285 284 285 287 289 290 292 293 292 291 291 291 290 290 288 288 287 288 288 289 288 289 289 289 291 292 292 292 291 291 289 288 288 288 287 286 285 284 284 284 284 283 282
332 323 318 320 326 324 318 310 303 300 298 295 291 291 291 293 293 295 296 294 290 289 290 293 291 288 285 283 284 285 286 289 290 291 291 291 290 289 288 287 286 286 285 286 286 286 285 284 286 287 288 289 290 290 290 288 286 284 283 282 282 282 282 281 281 281 279 278 279
339 325 318 322 320 316 309 303 299 298 297 294 293 294 295 295 296 298 297 295 292 292 292 290 288 288 288 286 284 285 286 288 289 289 289 289 288 287 286 285 285 284 284 285 286 286 285 283 284 284 285 286 287 287 287 286 283 281 279 278 277 277 277 277 277 276 274 272 273
326 312 306 311 309 305 301 298 297 297 296 295 296 296 296 296 298 298 297 294 295 295 293 290 288 288 289 289 287 286 287 288 287 286 286 285 285 285 285 284 283 282 282 283 284 285 285 284 283 283 282 283 283 283 282 281 280 278 277 275 274 273 272 272 272 271 269 268 269
304 294 293 298 297 296 294 295 296 296 296 295 296 296 296 297 298 298 297 295 294 293 292 290 289 288 288 287 287 286 285 285 284 284 283 282 282 283 283 283 282 282 282 282 282 283 284 284 283 283 282 281 280 279 279 278 277 275 274 272 271 270 269 268 266 265 264 264 266
282 282 285 286 286 288 290 292 293 294 294 295 296 297 298 297 296 297 297 296 293 291 290 291 291 289 286 284 284 283 283 283 283 282 282 282 283 283 283 283 283 283 282 281 281 281 281 282 283 282 282 281 280 279 277 276 275 273 272 271 269 268 267 265 263 261 261 261 263
265 269 272 272 277 282 286 288 290 292 294 296 297 298 298 297 297 297 296 295 293 292 290 290 290 289 287 284 284 283 282 281 283 283 284 284 285 284 284 284 284 283 283 281 281 280 281 281 281 281 281 280 280 279 277 275 274 272 271 269 268 266 264 262 260 259 258 259 261
253 255 257 261 267 274 279 282 286 290 293 295 296 296 296 296 297 296 294 292 293 293 292 289 287 286 286 285 285 283 282 282 284 284 285 287 287 286 285 284 285 285 284 283 282 281 280 280 280 279 279 278 277 276 275 275 274 272 270 269 267 264 263 262 261 260 260 260 260
247 247 249 253 259 267 274 280 284 288 291 293 293 294 295 296 296 294 293 293 294 293 291 288 285 283 282 281 281 282 283 286 286 286 287 289 288 288 288 288 288 287 287 286 284 283 281 280 278 276 274 274 272 270 270 270 271 271 270 269 268 267 267 267 267 266 265 263 262
243 245 247 250 257 268 276 280 284 287 290 291 292 294 295 296 296 296 296 296 295 293 290 287 284 281 279 278 279 282 285 289 290 290 289 290 290 290 291 290 290 288 287 285 283 282 281 280 277 273 269 267 266 266 265 265 267 267 268 268 269 269 269 268 267 265 264 263 263
241 245 250 254 262 270 275 279 284 287 289 290 292 294 296 297 298 298 298 297 294 291 288 286 285 283 281 281 281 283 286 290 292 293 293 293 292 292 292 292 289 286 284 282 282 283 284 283 279 275 272 269 267 266 265 263 263 264 265 266 268 270 271 271 269 268 268 269 269
241 248 255 262 266 270 274 278 281 283 285 288 291 294 296 297 297 298 297 295 293 290 288 286 286 286 286 286 285 286 287 289 292 294 295 296 295 294 294 294 291 288 284 283 286 289 291 293 294 292 288 285 284 283 281 276 273 271 269 268 272 277 280 282 281 280 280 279 278
244 253 259 262 265 269 272 274 276 279 283 287 292 294 295 295 295 295 294 293 291 289 288 288 288 289 290 290 291 291 291 291 291 293 294 296 296 295 294 293 292 290 288 287 290 293 296 299 300 301 300 298 298 297 295 291 286 281 278 276 279 283 287 290 290 289 287 286 283
251 256 259 260 264 267 268 269 274 279 285 289 292 293 293 292 293 293 292 290 289 288 288 288 287 289 291 292 294 294 293 293 293 293 292 293 294 294 293 292 291 289 287 288 292 295 299 302 303 304 304 302 300 297 293 290 288 285 282 281 283 285 287 289 290 290 290 288 285
253 256 259 263 265 267 268 271 278 283 286 288 289 289 289 290 291 290 289 287 288 289 290 289 286 288 291 294 293 292 292 293 293 293 292 291 291 290 290 290 288 287 287 290 295 299 302 304 305 305 305 303 300 295 292 290 290 289 288 286 286 287 288 289 290 292 291 289 285
251 255 259 263 265 268 272 277 280 282 283 285 286 287 288 288 288 287 286 286 288 289 290 289 291 293 295 295 293 293 293 292 292 292 292 292 290 289 287 286 286 286 289 293 298 301 303 305 305 305 304 304 302 298 294 292 293 293 293 292 292 292 292 291 292 291 289 285 281
249 252 256 259 264 269 274 277 278 280 282 284 286 286 287 287 286 285 285 285 286 285 286 289 294 295 294 293 293 294 294 293 292 292 291 290 289 288 287 286 286 287 291 295 299 301 303 304 305 305 304 304 303 300 295 294 294 294 295 295 294 292 291 291 289 286 282 279 278
250 250 252 257 264 270 273 276 278 280 282 284 285 285 284 283 282 281 281 283 284 286 288 291 292 291 290 289 291 291 292 292 291 290 289 288 288 287 287 288 287 288 291 296 299 302 304 305 305 305 305 305 304 302 298 298 297 296 296 295 293 291 290 288 283 279 276 276 278
250 249 251 257 264 270 274 278 280 281 281 281 281 280 279 277 276 276 278 281 287 291 293 294 293 292 291 291 291 290 290 291 290 289 288 287 287 288 288 289 289 289 292 297 301 303 305 306 306 306 306 306 305 304 302 302 300 298 295 292 289 286 284 280 277 275 275 276 278
249 248 250 256 264 270 275 278 279 279 279 278 276 275 275 275 277 280 283 285 288 290 291 291 291 291 292 292 292 292 291 290 290 289 289 288 288 289 290 290 290 292 295 299 302 304 306 306 306 306 307 307 306 306 307 305 301 298 294 290 285 281 277 274 274 275 276 278 279
248 248 251 256 263 270 274 276 276 276 276 276 274 274 275 279 284 287 288 288 288 287 286 286 286 286 287 288 290 291 291 292 291 291 291 290 289 289 290 290 290 294 297 300 302 304 305 306 307 307 308 309 308 309 308 304 300 296 292 287 283 279 276 274 275 275 276 278 279
247 249 254 260 264 268 272 274 275 276 277 278 279 280 281 283 285 286 287 288 289 288 287 285 284 284 285 286 286 287 289 291 291 291 290 290 290 290 290 290 289 293 297 299 302 304 305 306 307 308 309 311 310 309 305 301 297 293 289 285 282 280 278 277 276 276 277 278 278
245 247 254 261 264 267 270 273 276 280 282 284 286 287 287 287 285 284 285 287 289 289 287 287 287 287 288 289 288 287 288 289 290 291 291 291 292 292 292 291 290 293 296 298 301 303 305 307 308 310 311 312 310 306 302 298 295 291 287 284 282 280 279 278 278 278 278 277 276
243 243 248 257 262 265 269 273 280 285 288 288 288 288 288 288 287 286 286 289 290 289 288 288 289 289 289 289 289 289 288 287 289 291 292 293 293 293 293 292 292 292 295 298 301 303 305 308 310 311 312 312 308 304 300 296 292 289 286 284 282 281 280 280 280 280 278 273 270
242 240 241 249 257 264 271 278 285 287 288 288 287 286 286 287 288 287 287 288 288 289 289 289 290 289 288 289 289 289 288 287 288 290 292 293 293 292 292 293 292 292 294 298 301 304 306 309 311 312 313 310 307 303 299 294 291 289 288 287 285 284 283 282 283 280 275 267 270
241 236 235 243 255 265 274 282 284 285 285 286 286 287 286 286 286 286 286 286 285 285 287 289 289 289 289 291 292 292 292 290 290 291 291 292 291 292 292 293 293 293 295 298 301 304 307 310 311 312 312 309 305 301 297 293 291 290 289 289 288 286 285 284 282 280 276 271 277
238 234 235 244 257 268 276 281 281 281 281 283 285 286 286 284 285 285 286 286 284 283 285 286 287 288 290 293 294 294 294 294 293 291 291 290 290 292 293 293 293 293 294 296 299 302 306 310 311 312 311 307 303 298 294 292 291 291 291 291 291 291 291 289 287 286 284 281 283
238 237 242 251 260 268 275 278 279 279 280 281 281 281 282 284 285 287 288 288 286 286 287 288 289 290 291 294 295 295 295 295 294 292 290 290 290 291 293 292 291 290 289 289 294 300 306 310 311 311 310 306 302 298 294 293 292 292 293 293 294 295 296 295 292 290 289 287 286